Date String (YYYY-MM-DD hh:mm:ss) UTC,Instrument flags,Ambient pressure (hPa),Sample flow (lpm),Bypass flow (lpm),Sample temperature (°C),Ambient temperature (°C),ASC tube jacket temperature (°C),LED temperature (°C),Box temperature (°C),Sample RH (%),Span deviation,Mass concentration (μg/m³),Mass concentration (μg/m³),Mass concentration (μg/m³)
DateTimeUTC,F1_M11,P_M11,Q1_M11,Q2_M11,T1_M11,T2_M11,T3_M11,T4_M11,T5_M11,U1_M11,ZSPAN_M11,X0_M11,X2_M11,X1_M11
2022-04-28 14:00:00,,0821.7,4.99,0.00,26.7,26.2,00.0,35.5,28.5,15.6,0004.0,0026.18,0009.97,0005.50
2022-04-28 14:01:00,,0821.7,5.02,0.00,26.7,26.1,00.0,35.5,28.5,15.8,0004.1,0026.23,0009.91,0005.52
2022-04-28 14:02:00,,0821.7,4.99,0.00,26.7,26.1,00.0,35.5,28.5,15.4,0003.4,0026.60,0009.91,0005.54
2022-04-28 14:03:00,,0821.7,5.00,0.00,26.7,26.1,00.0,35.5,28.5,14.6,0003.8,0026.10,0009.81,0005.56
2022-04-28 14:04:00,,0821.7,4.99,0.00,26.6,26.1,00.0,35.5,28.5,14.5,0003.7,0026.03,0009.72,0005.55
2022-04-28 14:05:00,,0821.7,4.99,0.00,26.6,26.0,00.0,35.5,28.5,14.5,0003.2,0026.11,0009.60,0005.55
2022-04-28 14:06:00,,0821.7,5.02,0.00,26.6,26.0,00.0,35.5,28.5,14.4,0002.5,0026.42,0009.61,0005.56
2022-04-28 14:07:00,,0821.7,5.00,0.00,26.6,26.0,00.0,35.5,28.5,14.2,0002.3,0025.96,0009.59,0005.55
2022-04-28 14:08:00,,0821.7,5.00,0.00,26.6,26.0,00.0,35.5,28.5,14.3,0003.0,0027.04,0009.54,0005.54
2022-04-28 14:09:00,,0821.7,5.01,0.00,26.6,26.0,00.0,35.5,28.4,14.1,0003.4,0027.44,0009.53,0005.54
2022-04-28 14:10:00,,0821.7,5.01,0.00,26.6,26.0,00.0,35.5,28.5,14.0,0003.3,0026.94,0009.59,0005.53
2022-04-28 14:11:00,,0821.7,5.00,0.00,26.6,26.0,00.0,35.5,28.5,14.7,0003.4,0028.05,0009.64,0005.52
2022-04-28 14:12:00,,0821.7,4.99,0.00,26.6,26.0,00.0,35.5,28.5,14.7,0003.9,0029.11,0009.69,0005.51
2022-04-28 14:13:00,,0821.7,4.99,0.00,26.6,26.0,00.0,35.5,28.4,14.1,0004.3,0029.29,0009.68,0005.48
2022-04-28 14:14:00,,0821.7,4.99,0.00,26.6,26.0,00.0,35.5,28.4,13.3,0004.2,0029.91,0009.65,0005.46
2022-04-28 14:15:00,,0821.7,5.00,0.00,26.6,26.1,00.0,35.5,28.4,13.9,0003.7,0032.07,0009.65,0005.45
2022-04-28 14:16:00,,0821.7,5.00,0.00,26.6,26.1,00.0,35.5,28.5,14.0,0003.5,0032.52,0009.63,0005.44
2022-04-28 14:17:00,,0821.6,5.01,0.00,26.6,26.0,00.0,35.6,28.5,14.0,0003.5,0032.56,0009.57,0005.42
2022-04-28 14:18:00,,0821.6,5.00,0.00,26.7,26.1,00.0,35.6,28.5,14.4,0003.7,0033.74,0009.56,0005.41
2022-04-28 14:19:00,,0821.7,5.00,0.00,26.7,26.1,00.0,35.6,28.5,14.8,0002.7,0034.22,0009.64,0005.41
2022-04-28 14:20:00,,0821.7,5.00,0.00,26.7,26.1,00.0,35.6,28.6,14.3,0001.9,0035.14,0009.73,0005.40
2022-04-28 14:21:00,,0821.7,5.00,0.00,26.7,26.1,00.0,35.6,28.6,14.3,0001.5,0035.26,0009.61,0005.38
2022-04-28 14:22:00,,0821.7,5.01,0.00,26.7,26.1,00.0,35.6,28.6,14.6,0001.0,0034.16,0009.57,0005.35
2022-04-28 14:23:00,,0821.6,4.99,0.00,26.7,26.1,00.0,35.6,28.6,14.4,0000.5,0033.54,0009.47,0005.33
2022-04-28 14:24:00,,0821.6,4.99,0.00,26.7,26.0,00.0,35.6,28.5,14.3,0000.3,0033.34,0009.45,0005.33
2022-04-28 14:25:00,,0821.6,5.00,0.00,26.7,26.0,00.0,35.6,28.5,14.5,-000.5,0033.41,0009.50,0005.32
2022-04-28 14:26:00,,0821.6,4.99,0.00,26.7,26.0,00.0,35.6,28.5,14.8,-000.4,0032.47,0009.59,0005.31
2022-04-28 14:27:00,,0821.7,5.00,0.00,26.7,26.0,00.0,35.6,28.5,14.9,0000.0,0032.68,0009.67,0005.31
2022-04-28 14:28:00,,0821.6,5.00,0.00,26.7,26.0,00.0,35.6,28.6,15.1,0000.0,0033.33,0009.77,0005.34
2022-04-28 14:29:00,,0821.7,5.01,0.00,26.7,26.1,00.0,35.6,28.6,15.2,0000.0,0032.80,0009.78,0005.33
2022-04-28 14:30:00,,0821.7,5.00,0.00,26.8,26.1,00.0,35.6,28.6,15.5,0000.0,0031.77,0009.64,0005.31
2022-04-28 14:31:00,,0821.7,5.00,0.00,26.8,26.2,00.0,35.6,28.7,15.6,0000.0,0030.15,0009.53,0005.29
2022-04-28 14:32:00,,0821.6,4.99,0.00,26.8,26.2,00.0,35.7,28.7,15.4,0000.0,0029.67,0009.59,0005.31
2022-04-28 14:33:00,,0821.7,5.00,0.00,26.8,26.3,00.0,35.7,28.7,15.3,0000.0,0029.83,0009.57,0005.30
2022-04-28 14:34:00,,0821.7,5.01,0.00,26.9,26.3,00.0,35.7,28.7,15.5,0001.0,0031.34,0009.66,0005.30
2022-04-28 14:35:00,,0821.8,5.00,0.00,26.9,26.3,00.0,35.7,28.8,15.5,0000.8,0032.04,0009.64,0005.31
2022-04-28 14:36:00,,0821.8,5.00,0.00,26.9,26.4,00.0,35.7,28.8,15.4,0001.4,0032.13,0009.62,0005.32
2022-04-28 14:37:00,,0821.7,4.99,0.00,26.9,26.4,00.0,35.7,28.8,15.5,0001.5,0031.74,0009.69,0005.33
2022-04-28 14:38:00,,0821.8,4.99,0.00,26.9,26.4,00.0,35.7,28.9,15.4,0001.1,0031.78,0009.65,0005.36
2022-04-28 14:39:00,,0821.7,5.00,0.00,27.0,26.5,00.0,35.8,28.9,15.2,0001.0,0030.98,0009.65,0005.36
2022-04-28 14:40:00,,0821.7,5.01,0.00,27.0,26.5,00.0,35.8,28.9,15.2,0000.5,0031.56,0009.68,0005.38
2022-04-28 14:41:00,,0821.7,5.01,0.00,27.0,26.5,00.0,35.8,28.9,15.2,0000.4,0032.40,0009.83,0005.43
2022-04-28 14:42:00,,0821.7,4.99,0.00,27.1,26.5,00.0,35.8,29.0,15.0,0000.7,0032.89,0009.88,0005.44
2022-04-28 14:43:00,,0821.6,4.99,0.00,27.1,26.6,00.0,35.8,29.0,15.1,0000.7,0033.29,0009.91,0005.43
2022-04-28 14:44:00,,0821.7,4.99,0.00,27.1,26.6,00.0,35.9,29.0,15.1,0001.2,0033.31,0009.96,0005.45
2022-04-28 14:45:00,,0821.7,5.01,0.00,27.1,26.6,00.0,35.9,29.0,14.9,0001.2,0031.75,0009.87,0005.48
2022-04-28 14:46:00,,0821.7,5.01,0.00,27.1,26.6,00.0,35.9,29.0,14.3,0001.6,0030.78,0009.84,0005.48
2022-04-28 14:47:00,,0821.7,5.00,0.00,27.1,26.6,00.0,35.9,29.0,14.2,0001.1,0031.26,0009.84,0005.47
2022-04-28 14:48:00,,0821.7,4.99,0.00,27.2,26.6,00.0,35.9,29.1,14.2,0000.4,0031.36,0009.80,0005.46
2022-04-28 14:49:00,,0821.7,5.01,0.00,27.2,26.6,00.0,35.9,29.1,14.3,0000.0,0030.72,0009.81,0005.45
2022-04-28 14:50:00,,0821.9,5.00,0.00,27.2,26.7,00.0,36.0,29.1,14.4,0000.0,0031.17,0009.82,0005.44
2022-04-28 14:51:00,,0821.8,4.99,0.00,27.2,26.7,00.0,36.0,29.2,14.7,0000.0,0029.84,0009.75,0005.43
2022-04-28 14:52:00,,0821.8,4.99,0.00,27.3,26.7,00.0,36.0,29.2,14.8,0000.1,0031.04,0009.74,0005.42
2022-04-28 14:53:00,,0821.8,5.00,0.00,27.3,26.7,00.0,36.0,29.2,14.7,0000.3,0031.02,0009.86,0005.43
2022-04-28 14:54:00,,0821.8,5.00,0.00,27.3,26.8,00.0,36.1,29.2,14.6,0000.0,0030.56,0009.84,0005.44
2022-04-28 14:55:00,,0821.8,5.01,0.00,27.3,26.8,00.0,36.1,29.2,14.4,0000.4,0030.18,0009.84,0005.44
2022-04-28 14:56:00,,0821.8,4.99,0.00,27.3,26.8,00.0,36.1,29.2,14.4,0001.2,0030.10,0009.90,0005.44
2022-04-28 14:57:00,,0821.7,5.00,0.00,27.4,26.8,00.0,36.1,29.3,14.3,0001.6,0029.71,0009.96,0005.45
2022-04-28 14:58:00,,0821.8,5.00,0.00,27.4,26.8,00.0,36.1,29.3,14.4,0002.7,0029.15,0009.98,0005.46
2022-04-28 14:59:00,,0821.8,5.01,0.00,27.4,26.8,00.0,36.2,29.3,14.4,0002.1,0029.16,0009.89,0005.46
